{"data":{"norad_id":52001,"epoch":"2026-09-19T09:56:56.065056Z","epoch_age_seconds":149155,"freshness":"FRESH","line1":"1 52001U 22025AX  26262.41453779  .00003050  00000+0  98321-4 0  9991","line2":"2 52001  53.1583 218.6414 0001501  84.2626 275.8548 15.35396735250313","mean_motion":15.35396735,"eccentricity":0.0001501,"inclination_deg":53.1583,"raan_deg":218.6414,"arg_perigee_deg":84.2626,"mean_anomaly_deg":275.8548,"bstar":9.8321e-5,"rev_number":25031,"period_min":93.786834840443,"perigee_km":458.7159708063,"apogee_km":460.76870218311,"semimajor_km":6837.8793364947,"source":"CELESTRAK","updated_at":"2026-09-20T09:00:39.983452Z"}}